Weather History for KBPC - November, 2012

Change the Weather History Date:

Thursday, November 8, 2012

  Actual Average Record
Temperature  
Mean Temperature 66 °F -  
Max Temperature 82 °F - - ()
Min Temperature 50 °F - - ()
Cooling Degree Days 1    
Growing Degree Days 16 (Base 50)    
Moisture  
Dew Point 28 °F    
Average Humidity 29    
Maximum Humidity 55    
Minimum Humidity 10    
Precipitation  
Precipitation 0.00 in - - ()
Sea Level Pressure  
Sea Level Pressure 29.86 in    
Wind  
Wind Speed 12 mph (SW)    
Max Wind Speed 21 mph    
Max Gust Speed 29 mph    
Visibility 10 miles    
Events      
Averages and records for this station are not official NWS values.
T = Trace of Precipitation, MM = Missing Value Source: NWS Daily Summary

Daily Weather History Graph

Daily Weather History Graph

Search for Another Location

Airport or City:

Trip Planner

Search our weather history database for the weather conditions in past years. The results will help you decide how hot, cold, wet, or windy it might be!

Date:

Astronomy

Nov. 08, 2012 Rise Set
Actual Time 7:13 AM CST 5:41 PM CST
Civil Twilight 6:46 AM CST 6:08 PM CST
Nautical Twilight 6:16 AM CST 6:38 PM CST
Astronomical Twilight 5:46 AM CST 7:09 PM CST
Moon 1:22 AM CST (11/8) 2:13 PM CST (11/8)
Length of Visible Light 11h 21m
Length of Day
10h 27m
Waning Crescent, 32% of the Moon is Illuminated
Nov 8
Waning Crescent
Nov 13
New
Nov 20
First Quarter
Nov 28
Full
Dec 6
Last Quarter

Hourly Weather History & Observations

Time (CST) Temp. Dew Point Humidity Pressure Visibility Wind Dir Wind Speed Gust Speed Precip Events Conditions
12:15 AM 60.8 °F 41.0 °F 48% 29.91 in 10.0 mi South 16.1 mph 23.0 mph N/A   Clear
12:35 AM 60.8 °F 41.0 °F 48% 29.91 in 10.0 mi South 17.3 mph 24.2 mph N/A   Clear
12:55 AM 60.8 °F 41.0 °F 48% 29.91 in 10.0 mi South 11.5 mph - N/A   Clear
1:15 AM 59.0 °F 41.0 °F 51% 29.91 in 10.0 mi SSW 10.4 mph - N/A   Clear
1:35 AM 59.0 °F 41.0 °F 51% 29.91 in 10.0 mi WSW 8.1 mph - N/A   Clear
2:15 AM 57.2 °F 41.0 °F 55% 29.90 in 10.0 mi West 4.6 mph - N/A   Clear
2:35 AM 59.0 °F 41.0 °F 51% 29.89 in 10.0 mi SW 9.2 mph 16.1 mph N/A   Clear
2:55 AM 59.0 °F 39.2 °F 48% 29.88 in 10.0 mi SSW 17.3 mph - N/A   Clear
3:15 AM 57.2 °F 39.2 °F 51% 29.88 in 10.0 mi SSW 16.1 mph - N/A   Clear
3:35 AM 57.2 °F 39.2 °F 51% 29.87 in 10.0 mi SSW 18.4 mph - N/A   Clear
3:55 AM 57.2 °F 37.4 °F 48% 29.87 in 10.0 mi SSW 19.6 mph 28.8 mph N/A   Clear
4:15 AM 57.2 °F 37.4 °F 48% 29.86 in 10.0 mi SSW 17.3 mph 23.0 mph N/A   Clear
4:35 AM 55.4 °F 35.6 °F 47% 29.87 in 10.0 mi SSW 17.3 mph - N/A   Clear
5:15 AM 53.6 °F 33.8 °F 47% 29.87 in 10.0 mi SW 16.1 mph - N/A   Clear
5:35 AM 53.6 °F 33.8 °F 47% 29.86 in 10.0 mi SSW 17.3 mph - N/A   Clear
5:55 AM 53.6 °F 32.0 °F 44% 29.86 in 10.0 mi SW 17.3 mph 21.9 mph N/A   Clear
6:15 AM 53.6 °F 32.0 °F 44% 29.87 in 10.0 mi SW 16.1 mph - N/A   Clear
6:35 AM 51.8 °F 32.0 °F 47% 29.87 in 10.0 mi SW 15.0 mph - N/A   Clear
6:55 AM 51.8 °F 32.0 °F 47% 29.87 in 10.0 mi SW 13.8 mph - N/A   Clear
7:15 AM 50.0 °F 32.0 °F 50% 29.87 in 10.0 mi SW 11.5 mph - N/A   Clear
7:35 AM 50.0 °F 32.0 °F 50% 29.88 in 10.0 mi SW 12.7 mph - N/A   Clear
7:55 AM 51.8 °F 30.2 °F 44% 29.88 in 10.0 mi SW 9.2 mph - N/A   Clear
8:15 AM 53.6 °F 30.2 °F 41% 29.89 in 10.0 mi SW 9.2 mph - N/A   Clear
8:35 AM 55.4 °F 30.2 °F 38% 29.90 in 10.0 mi WSW 5.8 mph - N/A   Clear
8:55 AM 55.4 °F 30.2 °F 38% 29.90 in 10.0 mi WSW 9.2 mph - N/A   Clear
9:15 AM 59.0 °F 28.4 °F 31% 29.91 in 10.0 mi WSW 8.1 mph - N/A   Clear
9:35 AM 62.6 °F 26.6 °F 26% 29.90 in 10.0 mi WSW 17.3 mph 21.9 mph N/A   Clear
9:55 AM 64.4 °F 26.6 °F 24% 29.90 in 10.0 mi SW 15.0 mph - N/A   Clear
10:15 AM 66.2 °F 24.8 °F 21% 29.90 in 10.0 mi WSW 20.7 mph 26.5 mph N/A   Clear
10:35 AM 68.0 °F 24.8 °F 20% 29.90 in 10.0 mi WSW 16.1 mph - N/A   Clear
10:55 AM 69.8 °F 23.0 °F 17% 29.90 in 10.0 mi WSW 13.8 mph 21.9 mph N/A   Clear
11:15 AM 71.6 °F 23.0 °F 16% 29.90 in 10.0 mi SW 11.5 mph - N/A   Clear
11:35 AM 75.2 °F 23.0 °F 14% 29.89 in 10.0 mi WSW 9.2 mph 17.3 mph N/A   Clear
11:55 AM 77.0 °F 24.8 °F 14% 29.87 in 10.0 mi West 8.1 mph - N/A   Clear
12:15 PM 80.6 °F 24.8 °F 13% 29.87 in 10.0 mi WNW 9.2 mph - N/A   Clear
12:35 PM 80.6 °F 24.8 °F 13% 29.86 in 10.0 mi WSW 11.5 mph - N/A   Clear
1:15 PM 80.6 °F 23.0 °F 12% 29.84 in 10.0 mi WSW 8.1 mph - N/A   Clear
1:35 PM 82.4 °F 23.0 °F 11% 29.82 in 10.0 mi SSW 8.1 mph - N/A   Clear
1:55 PM 82.4 °F 23.0 °F 11% 29.82 in 10.0 mi SSW 10.4 mph - N/A   Clear
2:15 PM 82.4 °F 23.0 °F 11% 29.82 in 10.0 mi SW 9.2 mph - N/A   Clear
2:35 PM 82.4 °F 23.0 °F 11% 29.82 in 10.0 mi SSW 11.5 mph - N/A   Clear
2:55 PM 80.6 °F 23.0 °F 12% 29.81 in 10.0 mi SSW 10.4 mph - N/A   Clear
3:15 PM 82.4 °F 23.0 °F 11% 29.81 in 10.0 mi SSW 12.7 mph - N/A   Clear
3:35 PM 80.6 °F 21.2 °F 11% 29.81 in 10.0 mi SW 9.2 mph - N/A   Clear
3:55 PM 80.6 °F 21.2 °F 11% 29.81 in 10.0 mi SW 11.5 mph - N/A   Clear
4:15 PM 82.4 °F 21.2 °F 10% 29.81 in 10.0 mi SW 10.4 mph - N/A   Clear
4:35 PM 82.4 °F 19.4 °F 10% 29.81 in 10.0 mi WSW 13.8 mph 18.4 mph N/A   Clear
4:55 PM 82.4 °F 19.4 °F 10% 29.81 in 10.0 mi SW 13.8 mph 18.4 mph N/A   Clear
5:15 PM 78.8 °F 19.4 °F 11% 29.81 in 10.0 mi SW 10.4 mph 16.1 mph N/A   Clear
5:35 PM 75.2 °F 19.4 °F 12% 29.81 in 10.0 mi SW 8.1 mph - N/A   Clear
5:55 PM 69.8 °F 19.4 °F 15% 29.81 in 10.0 mi SW 8.1 mph - N/A   Clear
6:15 PM 64.4 °F 19.4 °F 18% 29.81 in 10.0 mi SSW 9.2 mph - N/A   Clear
6:35 PM 64.4 °F 19.4 °F 18% 29.82 in 10.0 mi SSW 9.2 mph - N/A   Clear
6:55 PM 62.6 °F 21.2 °F 20% 29.82 in 10.0 mi SSW 10.4 mph - N/A   Clear
7:15 PM 62.6 °F 21.2 °F 20% 29.82 in 10.0 mi SSW 10.4 mph - N/A   Clear
7:35 PM 60.8 °F 21.2 °F 22% 29.83 in 10.0 mi SW 5.8 mph - N/A   Clear
7:55 PM 60.8 °F 21.2 °F 22% 29.83 in 10.0 mi SSW 6.9 mph - N/A   Clear
8:15 PM 60.8 °F 21.2 °F 22% 29.84 in 10.0 mi SW 6.9 mph - N/A   Clear
8:35 PM 60.8 °F 21.2 °F 22% 29.84 in 10.0 mi North 3.5 mph - N/A   Clear
9:15 PM 57.2 °F 21.2 °F 25% 29.84 in 10.0 mi Calm Calm - N/A   Clear
9:35 PM 59.0 °F 24.8 °F 27% 29.84 in 10.0 mi Calm Calm - N/A   Clear
10:15 PM 57.2 °F 26.6 °F 31% 29.84 in 10.0 mi Calm Calm - N/A   Clear
10:35 PM 57.2 °F 28.4 °F 33% 29.84 in 10.0 mi East 3.5 mph - N/A   Clear
11:15 PM 59.0 °F 26.6 °F 29% 29.83 in 10.0 mi SE 3.5 mph - N/A   Clear
11:35 PM 53.6 °F 26.6 °F 35% 29.83 in 10.0 mi SW 4.6 mph - N/A   Clear